Year,Month,Day,Hour,Minute,Value (Times are PST for temperature in C)
2006,08,14,00,00,15.60
2006,08,14,00,01,15.60
2006,08,14,00,02,15.60
2006,08,14,00,03,15.50
2006,08,14,00,04,15.50
2006,08,14,00,05,15.50
2006,08,14,00,06,15.50
2006,08,14,00,07,15.50
2006,08,14,00,08,15.40
2006,08,14,00,09,15.40
2006,08,14,00,10,15.40
2006,08,14,00,11,15.40
2006,08,14,00,12,15.30
2006,08,14,00,13,15.30
2006,08,14,00,14,15.30
2006,08,14,00,15,15.30
2006,08,14,00,16,15.30
2006,08,14,00,17,15.30
2006,08,14,00,18,15.30
2006,08,14,00,19,15.30
2006,08,14,00,20,15.20
2006,08,14,00,21,15.20
2006,08,14,00,22,15.20
2006,08,14,00,23,15.20
2006,08,14,00,24,15.10
2006,08,14,00,25,15.00
2006,08,14,00,26,15.00
2006,08,14,00,27,15.00
2006,08,14,00,28,15.00
2006,08,14,00,29,15.00
2006,08,14,00,30,15.00
2006,08,14,00,31,15.00
2006,08,14,00,32,15.00
2006,08,14,00,33,15.00
2006,08,14,00,34,15.00
2006,08,14,00,35,15.00
2006,08,14,00,36,15.00
2006,08,14,00,37,15.00
2006,08,14,00,38,15.00
2006,08,14,00,39,15.00
2006,08,14,00,40,15.00
2006,08,14,00,41,15.00
2006,08,14,00,42,14.90
2006,08,14,00,43,14.90
2006,08,14,00,44,14.90
2006,08,14,00,45,14.80
2006,08,14,00,46,14.80
2006,08,14,00,47,14.80
2006,08,14,00,48,14.80
2006,08,14,00,49,14.80
2006,08,14,00,50,14.80
2006,08,14,00,51,14.80
2006,08,14,00,52,14.80
2006,08,14,00,53,14.80
2006,08,14,00,54,14.80
2006,08,14,00,55,14.80
2006,08,14,00,56,14.80
2006,08,14,00,57,14.80
2006,08,14,00,58,14.80
2006,08,14,00,59,14.80
2006,08,14,01,00,14.70
2006,08,14,01,01,14.70
2006,08,14,01,02,14.70
2006,08,14,01,03,14.70
2006,08,14,01,04,14.70
2006,08,14,01,05,14.70
2006,08,14,01,06,14.60
2006,08,14,01,07,14.60
2006,08,14,01,08,14.60
2006,08,14,01,09,14.60
2006,08,14,01,10,14.60
2006,08,14,01,11,14.60
2006,08,14,01,12,14.60
2006,08,14,01,13,14.50
2006,08,14,01,14,14.50
2006,08,14,01,15,14.50
2006,08,14,01,16,14.50
2006,08,14,01,17,14.50
2006,08,14,01,18,14.50
2006,08,14,01,19,14.50
2006,08,14,01,20,14.50
2006,08,14,01,21,14.50
2006,08,14,01,22,14.60
2006,08,14,01,23,14.60
2006,08,14,01,24,14.60
2006,08,14,01,25,14.60
2006,08,14,01,26,14.70
2006,08,14,01,27,14.70
2006,08,14,01,28,14.80
2006,08,14,01,29,14.90
2006,08,14,01,30,15.00
2006,08,14,01,31,15.00
2006,08,14,01,32,15.00
2006,08,14,01,33,15.00
2006,08,14,01,34,15.00
2006,08,14,01,35,15.00
2006,08,14,01,36,15.00
2006,08,14,01,37,15.00
2006,08,14,01,38,15.00
2006,08,14,01,39,15.00
2006,08,14,01,40,15.00
2006,08,14,01,41,14.90
2006,08,14,01,42,14.90
2006,08,14,01,43,14.80
2006,08,14,01,44,14.80
2006,08,14,01,45,14.80
2006,08,14,01,46,14.70
2006,08,14,01,47,14.60
2006,08,14,01,48,14.60
2006,08,14,01,49,14.60
2006,08,14,01,50,14.50
2006,08,14,01,51,14.50
2006,08,14,01,52,14.40
2006,08,14,01,53,14.40
2006,08,14,01,54,14.40
2006,08,14,01,55,14.30
2006,08,14,01,56,14.30
2006,08,14,01,57,14.30
2006,08,14,01,58,14.20
2006,08,14,01,59,14.20
2006,08,14,02,00,14.20
2006,08,14,02,01,14.20
2006,08,14,02,02,14.20
2006,08,14,02,03,14.10
2006,08,14,02,04,14.10
2006,08,14,02,05,14.10
2006,08,14,02,06,14.10
2006,08,14,02,07,14.20
2006,08,14,02,08,14.20
2006,08,14,02,09,14.20
2006,08,14,02,10,14.20
2006,08,14,02,11,14.20
2006,08,14,02,12,14.20
2006,08,14,02,13,14.20
2006,08,14,02,14,14.20
2006,08,14,02,15,14.20
2006,08,14,02,16,14.20
2006,08,14,02,17,14.20
2006,08,14,02,18,14.20
2006,08,14,02,19,14.10
2006,08,14,02,20,14.10
2006,08,14,02,21,14.10
2006,08,14,02,22,14.00
2006,08,14,02,23,14.00
2006,08,14,02,24,14.00
2006,08,14,02,25,14.00
2006,08,14,02,26,14.00
2006,08,14,02,27,13.90
2006,08,14,02,28,13.90
2006,08,14,02,29,13.90
2006,08,14,02,30,13.90
2006,08,14,02,31,13.90
2006,08,14,02,32,13.90
2006,08,14,02,33,13.90
2006,08,14,02,34,13.90
2006,08,14,02,35,13.90
2006,08,14,02,36,13.90
2006,08,14,02,37,13.90
2006,08,14,02,38,14.00
2006,08,14,02,39,14.00
2006,08,14,02,40,14.00
2006,08,14,02,41,14.10
2006,08,14,02,42,14.10
2006,08,14,02,43,14.10
2006,08,14,02,44,14.10
2006,08,14,02,45,14.10
2006,08,14,02,46,14.10
2006,08,14,02,47,14.10
2006,08,14,02,48,14.10
2006,08,14,02,49,14.10
2006,08,14,02,50,14.10
2006,08,14,02,51,14.10
2006,08,14,02,52,14.10
2006,08,14,02,53,14.10
2006,08,14,02,54,14.10
2006,08,14,02,55,14.10
2006,08,14,02,56,14.10
2006,08,14,02,57,14.10
2006,08,14,02,58,14.00
2006,08,14,02,59,14.00
2006,08,14,03,00,13.90
2006,08,14,03,01,13.90
2006,08,14,03,02,13.90
2006,08,14,03,03,13.90
2006,08,14,03,04,13.80
2006,08,14,03,05,13.80
2006,08,14,03,06,13.80
2006,08,14,03,07,13.80
2006,08,14,03,08,13.80
2006,08,14,03,09,13.70
2006,08,14,03,10,13.70
2006,08,14,03,11,13.70
2006,08,14,03,12,13.70
2006,08,14,03,13,13.70
2006,08,14,03,14,13.70
2006,08,14,03,15,13.70
2006,08,14,03,16,13.60
2006,08,14,03,17,13.60
2006,08,14,03,18,13.60
2006,08,14,03,19,13.60
2006,08,14,03,20,13.60
2006,08,14,03,21,13.60
2006,08,14,03,22,13.60
2006,08,14,03,23,13.60
2006,08,14,03,24,13.60
2006,08,14,03,25,13.50
2006,08,14,03,26,13.50
2006,08,14,03,27,13.40
2006,08,14,03,28,13.40
2006,08,14,03,29,13.30
2006,08,14,03,30,13.30
2006,08,14,03,31,13.30
2006,08,14,03,32,13.30
2006,08,14,03,33,13.20
2006,08,14,03,34,13.20
2006,08,14,03,35,13.20
2006,08,14,03,36,13.20
2006,08,14,03,37,13.20
2006,08,14,03,38,13.20
2006,08,14,03,39,13.20
2006,08,14,03,40,13.10
2006,08,14,03,41,13.10
2006,08,14,03,42,13.10
2006,08,14,03,43,13.10
2006,08,14,03,44,13.00
2006,08,14,03,45,13.00
2006,08,14,03,46,13.00
2006,08,14,03,47,13.00
2006,08,14,03,48,13.00
2006,08,14,03,49,13.00
2006,08,14,03,50,13.00
2006,08,14,03,51,13.00
2006,08,14,03,52,13.00
2006,08,14,03,53,13.10
2006,08,14,03,54,13.00
2006,08,14,03,55,13.00
2006,08,14,03,56,13.00
2006,08,14,03,57,13.00
2006,08,14,03,58,13.00
2006,08,14,03,59,12.90
2006,08,14,04,00,12.90
2006,08,14,04,01,12.90
2006,08,14,04,02,12.90
2006,08,14,04,03,12.90
2006,08,14,04,04,12.90
2006,08,14,04,05,12.90
2006,08,14,04,06,12.90
2006,08,14,04,07,12.90
2006,08,14,04,08,12.80
2006,08,14,04,09,12.80
2006,08,14,04,10,12.80
2006,08,14,04,11,12.80
2006,08,14,04,12,12.80
2006,08,14,04,13,12.80
2006,08,14,04,14,12.80
2006,08,14,04,15,12.70
2006,08,14,04,16,12.70
2006,08,14,04,17,12.70
2006,08,14,04,18,12.70
2006,08,14,04,19,12.70
2006,08,14,04,20,12.70
2006,08,14,04,21,12.60
2006,08,14,04,22,12.60
2006,08,14,04,23,12.60
2006,08,14,04,24,12.50
2006,08,14,04,25,12.50
2006,08,14,04,26,12.40
2006,08,14,04,27,12.40
2006,08,14,04,28,12.40
2006,08,14,04,29,12.40
2006,08,14,04,30,12.40
2006,08,14,04,31,12.30
2006,08,14,04,32,12.30
2006,08,14,04,33,12.30
2006,08,14,04,34,12.30
2006,08,14,04,35,12.30
2006,08,14,04,36,12.30
2006,08,14,04,37,12.40
2006,08,14,04,38,12.40
2006,08,14,04,39,12.40
2006,08,14,04,40,12.40
2006,08,14,04,41,12.40
2006,08,14,04,42,12.40
2006,08,14,04,43,12.40
2006,08,14,04,44,12.50
2006,08,14,04,45,12.50
2006,08,14,04,46,12.40
2006,08,14,04,47,12.40
2006,08,14,04,48,12.40
2006,08,14,04,49,12.40
2006,08,14,04,50,12.40
2006,08,14,04,51,12.40
2006,08,14,04,52,12.30
2006,08,14,04,53,12.30
2006,08,14,04,54,12.30
2006,08,14,04,55,12.30
2006,08,14,04,56,12.30
2006,08,14,04,57,12.30
2006,08,14,04,58,12.20
2006,08,14,04,59,12.20
2006,08,14,05,00,12.20
2006,08,14,05,01,12.30
2006,08,14,05,02,12.30
2006,08,14,05,03,12.30
2006,08,14,05,04,12.30
2006,08,14,05,05,12.30
2006,08,14,05,06,12.30
2006,08,14,05,07,12.20
2006,08,14,05,08,12.20
2006,08,14,05,09,12.20
2006,08,14,05,10,12.20
2006,08,14,05,11,12.20
2006,08,14,05,12,12.20
2006,08,14,05,13,12.20
2006,08,14,05,14,12.10
2006,08,14,05,15,12.10
2006,08,14,05,16,12.10
2006,08,14,05,17,12.10
2006,08,14,05,18,12.10
2006,08,14,05,19,12.10
2006,08,14,05,20,12.10
2006,08,14,05,21,12.10
2006,08,14,05,22,12.10
2006,08,14,05,23,12.10
2006,08,14,05,24,12.10
2006,08,14,05,25,12.10
2006,08,14,05,26,12.10
2006,08,14,05,27,12.00
2006,08,14,05,28,12.00
2006,08,14,05,29,12.00
2006,08,14,05,30,11.90
2006,08,14,05,31,11.90
2006,08,14,05,32,11.90
2006,08,14,05,33,11.90
2006,08,14,05,34,11.80
2006,08,14,05,35,11.80
2006,08,14,05,36,11.80
2006,08,14,05,37,11.80
2006,08,14,05,38,11.80
2006,08,14,05,39,11.80
2006,08,14,05,40,11.70
2006,08,14,05,41,11.70
2006,08,14,05,42,11.70
2006,08,14,05,43,11.70
2006,08,14,05,44,11.70
2006,08,14,05,45,11.70
2006,08,14,05,46,11.70
2006,08,14,05,47,11.70
2006,08,14,05,48,11.60
2006,08,14,05,49,11.60
2006,08,14,05,50,11.60
2006,08,14,05,51,11.70
2006,08,14,05,52,11.70
2006,08,14,05,53,11.70
2006,08,14,05,54,11.70
2006,08,14,05,55,11.70
2006,08,14,05,56,11.80
2006,08,14,05,57,11.80
2006,08,14,05,58,11.80
2006,08,14,05,59,11.80
2006,08,14,06,00,11.80
2006,08,14,06,01,11.80
2006,08,14,06,02,11.80
2006,08,14,06,03,11.80
2006,08,14,06,04,11.80
2006,08,14,06,05,11.70
2006,08,14,06,06,11.70
2006,08,14,06,07,11.70
2006,08,14,06,08,11.70
2006,08,14,06,09,11.70
2006,08,14,06,10,11.70
2006,08,14,06,11,11.70
2006,08,14,06,12,11.70
2006,08,14,06,13,11.70
2006,08,14,06,14,11.60
2006,08,14,06,15,11.60
2006,08,14,06,16,11.60
2006,08,14,06,17,11.60
2006,08,14,06,18,11.60
2006,08,14,06,19,11.60
2006,08,14,06,20,11.60
2006,08,14,06,21,11.60
2006,08,14,06,22,11.60
2006,08,14,06,23,11.60
2006,08,14,06,24,11.60
2006,08,14,06,25,11.60
2006,08,14,06,26,11.60
2006,08,14,06,27,11.60
2006,08,14,06,28,11.60
2006,08,14,06,29,11.60
2006,08,14,06,30,11.60
2006,08,14,06,31,11.60
2006,08,14,06,32,11.60
2006,08,14,06,33,11.60
2006,08,14,06,34,11.60
2006,08,14,06,35,11.60
2006,08,14,06,36,11.60
2006,08,14,06,37,11.60
2006,08,14,06,38,11.60
2006,08,14,06,39,11.60
2006,08,14,06,40,11.60
2006,08,14,06,41,11.60
2006,08,14,06,42,11.60
2006,08,14,06,43,11.60
2006,08,14,06,44,11.70
2006,08,14,06,45,11.70
2006,08,14,06,46,11.70
2006,08,14,06,47,11.70
2006,08,14,06,48,11.70
2006,08,14,06,49,11.70
2006,08,14,06,50,11.70
2006,08,14,06,51,11.70
2006,08,14,06,52,11.70
2006,08,14,06,53,11.70
2006,08,14,06,54,11.70
2006,08,14,06,55,11.80
2006,08,14,06,56,11.80
2006,08,14,06,57,11.80
2006,08,14,06,58,11.80
2006,08,14,06,59,11.80
2006,08,14,07,00,11.80
2006,08,14,07,01,11.90
2006,08,14,07,02,11.90
2006,08,14,07,03,11.90
2006,08,14,07,04,11.90
2006,08,14,07,05,11.90
2006,08,14,07,06,11.90
2006,08,14,07,07,12.00
2006,08,14,07,08,12.10
2006,08,14,07,09,12.10
2006,08,14,07,10,12.20
2006,08,14,07,11,12.30
2006,08,14,07,12,12.40
2006,08,14,07,13,12.50
2006,08,14,07,14,12.60
2006,08,14,07,15,12.80
2006,08,14,07,16,12.90
2006,08,14,07,17,13.00
2006,08,14,07,18,13.10
2006,08,14,07,19,13.20
2006,08,14,07,20,13.30
2006,08,14,07,21,13.40
2006,08,14,07,22,13.50
2006,08,14,07,23,13.60
2006,08,14,07,24,13.80
2006,08,14,07,25,13.90
2006,08,14,07,26,14.00
2006,08,14,07,27,14.10
2006,08,14,07,28,14.20
2006,08,14,07,29,14.40
2006,08,14,07,30,14.50
2006,08,14,07,31,14.70
2006,08,14,07,32,14.80
2006,08,14,07,33,15.00
2006,08,14,07,34,15.00
2006,08,14,07,35,15.10
2006,08,14,07,36,15.30
2006,08,14,07,37,15.40
2006,08,14,07,38,15.50
2006,08,14,07,39,15.60
2006,08,14,07,40,15.80
2006,08,14,07,41,15.90
2006,08,14,07,42,16.00
2006,08,14,07,43,16.10
2006,08,14,07,44,16.30
2006,08,14,07,45,16.40
2006,08,14,07,46,16.50
2006,08,14,07,47,16.60
2006,08,14,07,48,16.70
2006,08,14,07,49,16.70
2006,08,14,07,50,16.80
2006,08,14,07,51,16.90
2006,08,14,07,52,17.00
2006,08,14,07,53,17.20
2006,08,14,07,54,17.20
2006,08,14,07,55,17.30
2006,08,14,07,56,17.30
2006,08,14,07,57,17.40
2006,08,14,07,58,17.40
2006,08,14,07,59,17.50
2006,08,14,08,00,17.60
2006,08,14,08,01,17.60
2006,08,14,08,02,17.70
2006,08,14,08,03,17.80
2006,08,14,08,04,17.90
2006,08,14,08,05,17.90
2006,08,14,08,06,18.00
2006,08,14,08,07,18.10
2006,08,14,08,08,18.10
2006,08,14,08,09,18.10
2006,08,14,08,10,18.20
2006,08,14,08,11,18.20
2006,08,14,08,12,18.30
2006,08,14,08,13,18.40
2006,08,14,08,14,18.40
2006,08,14,08,15,18.50
2006,08,14,08,16,18.60
2006,08,14,08,17,18.60
2006,08,14,08,18,18.70
2006,08,14,08,19,18.70
2006,08,14,08,20,18.80
2006,08,14,08,21,18.80
2006,08,14,08,22,18.90
2006,08,14,08,23,18.90
2006,08,14,08,24,18.90
2006,08,14,08,25,18.90
2006,08,14,08,26,18.90
2006,08,14,08,27,18.90
2006,08,14,08,28,18.90
2006,08,14,08,29,18.90
2006,08,14,08,30,18.90
2006,08,14,08,31,19.00
2006,08,14,08,32,19.00
2006,08,14,08,33,19.10
2006,08,14,08,34,19.10
2006,08,14,08,35,19.10
2006,08,14,08,36,19.10
2006,08,14,08,37,19.20
2006,08,14,08,38,19.20
2006,08,14,08,39,19.20
2006,08,14,08,40,19.20
2006,08,14,08,41,19.30
2006,08,14,08,42,19.30
2006,08,14,08,43,19.30
2006,08,14,08,44,19.40
2006,08,14,08,45,19.50
2006,08,14,08,46,19.50
2006,08,14,08,47,19.60
2006,08,14,08,48,19.70
2006,08,14,08,49,19.70
2006,08,14,08,50,19.70
2006,08,14,08,51,19.60
2006,08,14,08,52,19.50
2006,08,14,08,53,19.50
2006,08,14,08,54,19.40
2006,08,14,08,55,19.40
2006,08,14,08,56,19.50
2006,08,14,08,57,19.50
2006,08,14,08,58,19.50
2006,08,14,08,59,19.50
2006,08,14,09,00,19.40
2006,08,14,09,01,19.40
2006,08,14,09,02,19.30
2006,08,14,09,03,19.20
2006,08,14,09,04,19.20
2006,08,14,09,05,19.20
2006,08,14,09,06,19.20
2006,08,14,09,07,19.30
2006,08,14,09,08,19.30
2006,08,14,09,09,19.40
2006,08,14,09,10,19.40
2006,08,14,09,11,19.40
2006,08,14,09,12,19.40
2006,08,14,09,13,19.30
2006,08,14,09,14,19.40
2006,08,14,09,15,19.40
2006,08,14,09,16,19.40
2006,08,14,09,17,19.60
2006,08,14,09,18,19.60
2006,08,14,09,19,19.80
2006,08,14,09,20,19.80
2006,08,14,09,21,19.90
2006,08,14,09,22,19.80
2006,08,14,09,23,19.90
2006,08,14,09,24,19.80
2006,08,14,09,25,19.80
2006,08,14,09,26,19.90
2006,08,14,09,27,19.90
2006,08,14,09,28,19.90
2006,08,14,09,29,19.80
2006,08,14,09,30,19.80
2006,08,14,09,31,19.80
2006,08,14,09,32,19.80
2006,08,14,09,33,19.70
2006,08,14,09,34,19.70
2006,08,14,09,35,19.60
2006,08,14,09,36,19.60
2006,08,14,09,37,19.70
2006,08,14,09,38,19.60
2006,08,14,09,39,19.70
2006,08,14,09,40,19.60
2006,08,14,09,41,19.50
2006,08,14,09,42,19.40
2006,08,14,09,43,19.40
2006,08,14,09,44,19.30
2006,08,14,09,45,19.20
2006,08,14,09,46,19.20
2006,08,14,09,47,19.20
2006,08,14,09,48,19.30
2006,08,14,09,49,19.30
2006,08,14,09,50,19.40
2006,08,14,09,51,19.50
2006,08,14,09,52,19.60
2006,08,14,09,53,19.50
2006,08,14,09,54,19.40
2006,08,14,09,55,19.40
2006,08,14,09,56,19.40
2006,08,14,09,57,19.30
2006,08,14,09,58,19.30
2006,08,14,09,59,19.40
2006,08,14,10,00,19.40
2006,08,14,10,01,19.40
2006,08,14,10,02,19.50
2006,08,14,10,03,19.50
2006,08,14,10,04,19.40
2006,08,14,10,05,19.30
2006,08,14,10,06,19.30
2006,08,14,10,07,19.30
2006,08,14,10,08,19.30
2006,08,14,10,09,19.30
2006,08,14,10,10,19.40
2006,08,14,10,11,19.40
2006,08,14,10,12,19.60
2006,08,14,10,13,19.70
2006,08,14,10,14,19.80
2006,08,14,10,15,19.80
2006,08,14,10,16,19.80
2006,08,14,10,17,19.70
2006,08,14,10,18,19.70
2006,08,14,10,19,19.70
2006,08,14,10,20,19.70
2006,08,14,10,21,19.60
2006,08,14,10,22,19.60
2006,08,14,10,23,19.50
2006,08,14,10,24,19.40
2006,08,14,10,25,19.30
2006,08,14,10,26,19.40
2006,08,14,10,27,19.60
2006,08,14,10,28,19.60
2006,08,14,10,29,19.70
2006,08,14,10,30,19.70
2006,08,14,10,31,19.70
2006,08,14,10,32,19.80
2006,08,14,10,33,19.80
2006,08,14,10,34,19.70
2006,08,14,10,35,19.70
2006,08,14,10,36,19.70
2006,08,14,10,37,19.60
2006,08,14,10,38,19.50
2006,08,14,10,39,19.50
2006,08,14,10,40,19.50
2006,08,14,10,41,19.60
2006,08,14,10,42,19.60
2006,08,14,10,43,19.70
2006,08,14,10,44,19.80
2006,08,14,10,45,19.80
2006,08,14,10,46,19.90
2006,08,14,10,47,20.00
2006,08,14,10,48,20.00
2006,08,14,10,49,20.00
2006,08,14,10,50,20.00
2006,08,14,10,51,19.90
2006,08,14,10,52,20.00
2006,08,14,10,53,20.00
2006,08,14,10,54,20.10
2006,08,14,10,55,20.20
2006,08,14,10,56,20.20
2006,08,14,10,57,20.20
2006,08,14,10,58,20.20
2006,08,14,10,59,20.20
2006,08,14,11,00,20.20
2006,08,14,11,01,20.20
2006,08,14,11,02,20.20
2006,08,14,11,03,20.20
2006,08,14,11,04,20.30
2006,08,14,11,05,20.30
2006,08,14,11,06,20.20
2006,08,14,11,07,20.10
2006,08,14,11,08,20.00
2006,08,14,11,09,20.00
2006,08,14,11,10,20.00
2006,08,14,11,11,20.00
2006,08,14,11,12,20.20
2006,08,14,11,13,20.30
2006,08,14,11,14,20.40
2006,08,14,11,15,20.60
2006,08,14,11,16,20.70
2006,08,14,11,17,20.70
2006,08,14,11,18,20.80
2006,08,14,11,19,20.80
2006,08,14,11,20,20.90
2006,08,14,11,21,21.00
2006,08,14,11,22,21.20
2006,08,14,11,23,21.30
2006,08,14,11,24,21.30
2006,08,14,11,25,21.30
2006,08,14,11,26,21.20
2006,08,14,11,27,21.20
2006,08,14,11,28,21.30
2006,08,14,11,29,21.30
2006,08,14,11,30,21.30
2006,08,14,11,31,21.30
2006,08,14,11,32,21.20
2006,08,14,11,33,21.30
2006,08,14,11,34,21.30
2006,08,14,11,35,21.40
2006,08,14,11,36,21.40
2006,08,14,11,37,21.50
2006,08,14,11,38,21.60
2006,08,14,11,39,21.50
2006,08,14,11,40,21.40
2006,08,14,11,41,21.30
2006,08,14,11,42,21.40
2006,08,14,11,43,21.50
2006,08,14,11,44,21.60
2006,08,14,11,45,21.70
2006,08,14,11,46,21.80
2006,08,14,11,47,21.80
2006,08,14,11,48,21.90
2006,08,14,11,49,22.00
2006,08,14,11,50,22.10
2006,08,14,11,51,22.20
2006,08,14,11,52,22.20
2006,08,14,11,53,22.00
2006,08,14,11,54,21.90
2006,08,14,11,55,21.90
2006,08,14,11,56,22.00
2006,08,14,11,57,21.90
2006,08,14,11,58,21.90
2006,08,14,11,59,21.80
2006,08,14,12,00,21.90
2006,08,14,12,01,21.90
2006,08,14,12,02,21.90
2006,08,14,12,03,21.90
2006,08,14,12,04,21.90
2006,08,14,12,05,21.90
2006,08,14,12,06,21.90
2006,08,14,12,07,21.80
2006,08,14,12,08,21.60
2006,08,14,12,09,21.50
2006,08,14,12,10,21.30
2006,08,14,12,11,21.30
2006,08,14,12,12,21.20
2006,08,14,12,13,21.20
2006,08,14,12,14,21.30
2006,08,14,12,15,21.30
2006,08,14,12,16,21.30
2006,08,14,12,17,21.40
2006,08,14,12,18,21.40
2006,08,14,12,19,21.40
2006,08,14,12,20,21.50
2006,08,14,12,21,21.50
2006,08,14,12,22,21.50
2006,08,14,12,23,21.50
2006,08,14,12,24,21.50
2006,08,14,12,25,21.50
2006,08,14,12,26,21.50
2006,08,14,12,27,21.60
2006,08,14,12,28,21.60
2006,08,14,12,29,21.60
2006,08,14,12,30,21.70
2006,08,14,12,31,21.60
2006,08,14,12,32,21.60
2006,08,14,12,33,21.50
2006,08,14,12,34,21.40
2006,08,14,12,35,21.40
2006,08,14,12,36,21.30
2006,08,14,12,37,21.30
2006,08,14,12,38,21.20
2006,08,14,12,39,21.20
2006,08,14,12,40,21.20
2006,08,14,12,41,21.20
2006,08,14,12,42,21.30
2006,08,14,12,43,21.30
2006,08,14,12,44,21.30
2006,08,14,12,45,21.30
2006,08,14,12,46,21.30
2006,08,14,12,47,21.30
2006,08,14,12,48,21.30
2006,08,14,12,49,21.40
2006,08,14,12,50,21.50
2006,08,14,12,51,21.60
2006,08,14,12,52,21.70
2006,08,14,12,53,21.80
2006,08,14,12,54,21.90
2006,08,14,12,55,21.90
2006,08,14,12,56,21.90
2006,08,14,12,57,21.80
2006,08,14,12,58,21.90
2006,08,14,12,59,22.00
2006,08,14,13,00,22.10
2006,08,14,13,01,22.10
2006,08,14,13,02,22.00
2006,08,14,13,03,21.90
2006,08,14,13,04,21.80
2006,08,14,13,05,21.80
2006,08,14,13,06,21.70
2006,08,14,13,07,21.70
2006,08,14,13,08,21.70
2006,08,14,13,09,21.70
2006,08,14,13,10,21.70
2006,08,14,13,11,21.70
2006,08,14,13,12,21.70
2006,08,14,13,13,21.70
2006,08,14,13,14,21.80
2006,08,14,13,15,21.80
2006,08,14,13,16,21.80
2006,08,14,13,17,21.90
2006,08,14,13,18,22.10
2006,08,14,13,19,22.30
2006,08,14,13,20,22.40
2006,08,14,13,21,22.40
2006,08,14,13,22,22.40
2006,08,14,13,23,22.30
2006,08,14,13,24,22.30
2006,08,14,13,25,22.30
2006,08,14,13,26,22.30
2006,08,14,13,27,22.30
2006,08,14,13,28,22.30
2006,08,14,13,29,22.30
2006,08,14,13,30,22.20
2006,08,14,13,31,22.20
2006,08,14,13,32,22.10
2006,08,14,13,33,21.90
2006,08,14,13,34,21.90
2006,08,14,13,35,22.00
2006,08,14,13,36,22.00
2006,08,14,13,37,22.10
2006,08,14,13,38,22.10
2006,08,14,13,39,22.20
2006,08,14,13,40,22.30
2006,08,14,13,41,22.40
2006,08,14,13,42,22.40
2006,08,14,13,43,22.50
2006,08,14,13,44,22.50
2006,08,14,13,45,22.50
2006,08,14,13,46,22.50
2006,08,14,13,47,22.50
2006,08,14,13,48,22.50
2006,08,14,13,49,22.50
2006,08,14,13,50,22.40
2006,08,14,13,51,22.40
2006,08,14,13,52,22.30
2006,08,14,13,53,22.30
2006,08,14,13,54,22.20
2006,08,14,13,55,22.20
2006,08,14,13,56,22.20
2006,08,14,13,57,22.30
2006,08,14,13,58,22.50
2006,08,14,13,59,22.60
2006,08,14,14,00,22.70
2006,08,14,14,01,22.70
2006,08,14,14,02,22.60
2006,08,14,14,03,22.60
2006,08,14,14,04,22.50
2006,08,14,14,05,22.40
2006,08,14,14,06,22.40
2006,08,14,14,07,22.40
2006,08,14,14,08,22.40
2006,08,14,14,09,22.50
2006,08,14,14,10,22.50
2006,08,14,14,11,22.50
2006,08,14,14,12,22.50
2006,08,14,14,13,22.60
2006,08,14,14,14,22.70
2006,08,14,14,15,22.70
2006,08,14,14,16,22.70
2006,08,14,14,17,22.60
2006,08,14,14,18,22.60
2006,08,14,14,19,22.70
2006,08,14,14,20,22.70
2006,08,14,14,21,22.80
2006,08,14,14,22,22.90
2006,08,14,14,23,22.90
2006,08,14,14,24,22.90
2006,08,14,14,25,22.90
2006,08,14,14,26,22.80
2006,08,14,14,27,22.80
2006,08,14,14,28,22.80
2006,08,14,14,29,22.80
2006,08,14,14,30,22.80
2006,08,14,14,31,22.80
2006,08,14,14,32,22.80
2006,08,14,14,33,22.80
2006,08,14,14,34,22.70
2006,08,14,14,35,22.60
2006,08,14,14,36,22.70
2006,08,14,14,37,22.70
2006,08,14,14,38,22.70
2006,08,14,14,39,22.50
2006,08,14,14,40,22.50
2006,08,14,14,41,22.50
2006,08,14,14,42,22.60
2006,08,14,14,43,22.70
2006,08,14,14,44,22.70
2006,08,14,14,45,22.70
2006,08,14,14,46,22.60
2006,08,14,14,47,22.50
2006,08,14,14,48,22.50
2006,08,14,14,49,22.50
2006,08,14,14,50,22.50
2006,08,14,14,51,22.60
2006,08,14,14,52,22.60
2006,08,14,14,53,22.60
2006,08,14,14,54,22.60
2006,08,14,14,55,22.60
2006,08,14,14,56,22.50
2006,08,14,14,57,22.40
2006,08,14,14,58,22.50
2006,08,14,14,59,22.50
2006,08,14,15,00,22.50
2006,08,14,15,01,22.50
2006,08,14,15,02,22.40
2006,08,14,15,03,22.50
2006,08,14,15,04,22.50
2006,08,14,15,05,22.40
2006,08,14,15,06,22.30
2006,08,14,15,07,22.30
2006,08,14,15,08,22.30
2006,08,14,15,09,22.50
2006,08,14,15,10,22.50
2006,08,14,15,11,22.60
2006,08,14,15,12,22.70
2006,08,14,15,13,22.80
2006,08,14,15,14,22.60
2006,08,14,15,15,22.50
2006,08,14,15,16,22.40
2006,08,14,15,17,22.40
2006,08,14,15,18,22.40
2006,08,14,15,19,22.50
2006,08,14,15,20,22.50
2006,08,14,15,21,22.60
2006,08,14,15,22,22.60
2006,08,14,15,23,22.60
2006,08,14,15,24,22.60
2006,08,14,15,25,22.60
2006,08,14,15,26,22.50
2006,08,14,15,27,22.40
2006,08,14,15,28,22.40
2006,08,14,15,29,22.40
2006,08,14,15,30,22.40
2006,08,14,15,31,22.40
2006,08,14,15,32,22.30
2006,08,14,15,33,22.20
2006,08,14,15,34,22.30
2006,08,14,15,35,22.40
2006,08,14,15,36,22.50
2006,08,14,15,37,22.60
2006,08,14,15,38,22.60
2006,08,14,15,39,22.50
2006,08,14,15,40,22.40
2006,08,14,15,41,22.30
2006,08,14,15,42,22.30
2006,08,14,15,43,22.50
2006,08,14,15,44,22.60
2006,08,14,15,45,22.50
2006,08,14,15,46,22.40
2006,08,14,15,47,22.40
2006,08,14,15,48,22.30
2006,08,14,15,49,22.20
2006,08,14,15,50,22.20
2006,08,14,15,51,22.30
2006,08,14,15,52,22.40
2006,08,14,15,53,22.40
2006,08,14,15,54,22.30
2006,08,14,15,55,22.20
2006,08,14,15,56,22.20
2006,08,14,15,57,22.20
2006,08,14,15,58,22.10
2006,08,14,15,59,22.00
2006,08,14,16,00,22.10
2006,08,14,16,01,22.10
2006,08,14,16,02,22.10
2006,08,14,16,03,22.20
2006,08,14,16,04,22.30
2006,08,14,16,05,22.30
2006,08,14,16,06,22.30
2006,08,14,16,07,22.30
2006,08,14,16,08,22.30
2006,08,14,16,09,22.20
2006,08,14,16,10,22.10
2006,08,14,16,11,22.10
2006,08,14,16,12,22.00
2006,08,14,16,13,21.90
2006,08,14,16,14,21.80
2006,08,14,16,15,21.80
2006,08,14,16,16,21.80
2006,08,14,16,17,21.90
2006,08,14,16,18,22.10
2006,08,14,16,19,22.10
2006,08,14,16,20,22.20
2006,08,14,16,21,22.20
2006,08,14,16,22,22.20
2006,08,14,16,23,22.20
2006,08,14,16,24,22.20
2006,08,14,16,25,22.10
2006,08,14,16,26,22.10
2006,08,14,16,27,22.10
2006,08,14,16,28,22.10
2006,08,14,16,29,22.10
2006,08,14,16,30,22.00
2006,08,14,16,31,21.90
2006,08,14,16,32,21.80
2006,08,14,16,33,21.70
2006,08,14,16,34,21.60
2006,08,14,16,35,21.40
2006,08,14,16,36,21.40
2006,08,14,16,37,21.30
2006,08,14,16,38,21.30
2006,08,14,16,39,21.30
2006,08,14,16,40,21.30
2006,08,14,16,41,21.20
2006,08,14,16,42,21.20
2006,08,14,16,43,21.10
2006,08,14,16,44,21.00
2006,08,14,16,45,21.00
2006,08,14,16,46,20.90
2006,08,14,16,47,20.90
2006,08,14,16,48,20.60
2006,08,14,16,49,20.30
2006,08,14,16,50,19.90
2006,08,14,16,51,19.60
2006,08,14,16,52,19.40
2006,08,14,16,53,19.30
2006,08,14,16,54,19.20
2006,08,14,16,55,19.20
2006,08,14,16,56,19.30
2006,08,14,16,57,19.30
2006,08,14,16,58,19.20
2006,08,14,16,59,19.20
2006,08,14,17,00,19.20
2006,08,14,17,01,19.20
2006,08,14,17,02,19.10
2006,08,14,17,03,19.10
2006,08,14,17,04,19.10
2006,08,14,17,05,19.10
2006,08,14,17,06,19.00
2006,08,14,17,07,19.00
2006,08,14,17,08,19.00
2006,08,14,17,09,19.10
2006,08,14,17,10,19.10
2006,08,14,17,11,19.10
2006,08,14,17,12,19.10
2006,08,14,17,13,19.10
2006,08,14,17,14,19.30
2006,08,14,17,15,19.50
2006,08,14,17,16,19.70
2006,08,14,17,17,19.80
2006,08,14,17,18,19.70
2006,08,14,17,19,19.70